Location: *
(38.4250°S, 156.6439°W)
Time: 14:22:57
(UTC+00:00)

Daily predictions for brighter satellites

Satellite Brightness Start Highest point End
(mag) Time Altitude Azimuth Time Altitude Azimuth Time Altitude Azimuth
Cosmos 1782 Rocket 3.7 12:08:17 67° WSW 12:08:17 67° WSW 12:12:34 10° S
COSMOS 2441 4.4 12:12:33 61° W 12:12:33 61° W 12:17:21 10° SSW
Cosmos 158 Rocket 4.2 12:07:58 10° SSW 12:12:09 49° WSW 12:12:09 49° WSW
Cosmos 44 Rocket 3.2 12:14:08 62° WSW 12:14:23 64° WSW 12:19:02 10° SSE
Cosmos 1535 Rocket 4.4 12:08:44 10° SSW 12:14:50 65° W 12:16:08 52° NW
CZ-2C R/B 3.6 12:12:54 29° NE 12:15:43 62° ESE 12:21:25 10° S
Cosmos 1953 3.0 12:22:03 42° SW 12:22:03 42° SW 12:25:18 10° S
USA 306 3.7 12:28:14 33° SSW 12:28:14 33° SSW 12:31:28 10° SSE
ISS -3.1 12:30:57 53° S 12:30:57 53° S 12:33:57 10° SE
Meteor 1-21 Rocket 4.1 12:25:15 10° S 12:30:55 82° W 12:32:54 42° N
Cosmos 1975 Rocket 2.9 12:27:49 10° SSW 12:32:12 71° W 12:32:31 68° NW
Cosmos 2322 Rocket 3.6 12:30:29 10° S 12:35:43 37° ESE 12:40:53 10° NE
Cosmos 1315 Rocket 3.4 12:32:07 10° SSW 12:35:26 43° WSW 12:35:26 43° WSW
Cosmos 1867 3.5 12:30:45 10° SW 12:36:06 65° WNW 12:37:55 40° N
SL-8 R/B 4.3 12:37:01 39° NNE 12:37:40 41° NE 12:42:13 10° ESE
MOZ.5/SAFIR/RUBIN 5/SL-8 3.9 12:33:35 10° SSE 12:38:18 68° ENE 12:39:49 41° N
ADEOS II 2.9 12:39:43 32° W 12:39:43 32° W 12:44:22 10° SW
Cosmos 1328 3.9 12:36:24 10° SSW 12:40:04 55° W 12:40:04 55° W
Cosmos 2333 Rocket 4.5 12:35:44 10° S 12:40:20 25° SE 12:44:56 10° ENE
CZ-2C R/B 3.5 12:35:28 10° NE 12:40:24 45° ESE 12:45:19 10° S
Thor Agena Rocket 3.4 12:39:46 33° NNE 12:42:07 86° WNW 12:47:20 10° SSW
Genesis I 2.9 12:39:37 10° SSW 12:43:21 82° WNW 12:43:22 82° NW
NOSS 3-1 (A) 3.1 12:38:20 10° SSW 12:44:33 88° ESE 12:49:39 10° NNE
NOSS 3-1 (C) 3.4 12:40:14 10° SW 12:45:46 40° WNW 12:46:03 40° WNW
SL-16 R/B 4.5 12:43:09 10° SE 12:47:53 22° E 12:52:34 10° NE
Resurs 1-4 Rocket 4.0 12:51:34 14° W 12:51:34 14° W 12:53:40 10° WSW
Cosmos 2151 Rocket 3.7 12:53:25 35° N 12:55:15 79° E 12:59:52 10° S
DNEPR-1 R/B 4.0 12:54:28 37° W 12:55:41 48° SW 12:59:46 10° SSE
SL-16 R/B 2.2 12:51:36 10° SSW 12:57:21 86° ESE 13:03:03 10° NNE
Cosmos 1459 Rocket 4.2 12:51:01 10° S 12:57:29 74° E 13:03:51 10° NNE
USA 281 3.7 12:53:26 10° NE 12:59:54 63° ESE 13:06:26 10° SSW
CZ-2D R/B 4.1 13:01:05 13° W 13:01:05 13° W 13:03:01 10° WSW
CZ-4 R/B 4.2 12:59:46 38° NW 13:00:36 41° W 13:05:04 10° SSW
Lacrosse 5 rocket 1.8 12:58:33 10° SSW 13:02:11 53° SE 13:05:54 10° ENE
ATLAS CENTAUR R/B 1.3 12:58:01 10° SSW 13:02:29 78° WNW 13:06:47 10° NNE
ALOS 2.6 13:01:30 38° NW 13:02:34 44° W 13:07:04 10° SSW
PAYLOAD A 4.1 12:58:44 10° NNE 13:03:28 67° ESE 13:08:13 10° S
Tiangong -1.6 13:04:55 44° NNE 13:04:55 44° NNE 13:07:53 10° E
Cosmos 1892 4.3 13:02:38 10° SW 13:04:43 20° WSW 13:04:43 20° WSW
Cosmos 1980 Rocket 3.8 13:01:53 10° WSW 13:04:48 17° W 13:04:48 17° W
METEOR-M 4.1 13:01:10 15° NNE 13:05:37 86° WNW 13:11:04 10° SSW
Envisat 3.0 13:06:49 10° NNE 13:11:55 84° ESE 13:17:05 10° S
Geosat 3.9 13:07:51 10° NNE 13:12:53 87° WNW 13:17:59 10° SSW
Cosmos 332 Rocket 3.8 13:15:50 29° NNW 13:18:19 72° WSW 13:23:13 10° SSE
Cosmos 1825 3.7 13:16:00 10° SW 13:18:15 19° W 13:18:15 19° W
Timation 1 Rocket 4.3 13:15:27 24° NNW 13:19:13 87° WSW 13:25:17 10° SSE
Cosmos 1898 Rocket 3.5 13:17:13 25° NNW 13:20:24 85° WSW 13:25:45 10° SSE
Meteor 1-4 Rocket 2.9 13:19:26 10° SSW 13:22:26 35° W 13:22:38 35° WNW
SL-27 R/B 3.1 13:23:26 21° NNE 13:25:06 42° ENE 13:28:03 10° SSE
Cosmos 2016 Rocket 4.2 13:18:59 10° S 13:25:28 80° E 13:31:51 10° N
Cosmos 2123 Rocket 4.0 13:21:08 17° NNW 13:26:05 78° W 13:32:24 10° S
IRS-1D 3.7 13:22:27 16° N 13:26:31 55° W 13:31:47 10° SSW
Cosmos 1455 4.0 13:26:21 16° W 13:26:42 16° WSW 13:29:01 10° SW
ATLAS 3B R/B 3.2 13:21:48 10° SW 13:27:09 30° WNW 13:31:06 16° NNW
YAOGAN 6 2.3 13:27:06 16° N 13:29:42 85° W 13:33:06 10° SSW
Cosmos 1455 Rocket 4.4 13:26:24 10° NNE 13:30:26 37° E 13:34:30 10° SSE
Sich 1 Rocket 4.3 13:29:10 25° NW 13:31:18 39° WSW 13:35:40 10° S
Cosmos 1937 Rocket 3.4 13:28:53 19° NNW 13:32:42 89° ENE 13:37:54 10° SSE
Meteor 2-13 Rocket 4.5 13:29:52 17° NNW 13:34:40 67° W 13:40:46 10° S
USA 32 4.4 13:33:10 10° N 13:38:22 67° E 13:43:38 10° S
Cosmos 1680 Rocket 4.3 13:34:09 10° S 13:39:25 55° ESE 13:44:38 10° NNE
Cosmos 1346 Rocket 2.9 13:37:32 13° N 13:40:58 74° E 13:44:54 10° SSE
Cosmos 2173 Rocket 4.4 13:41:15 10° SSW 13:46:57 41° W 13:52:28 11° NNW
Cosmos 2233 Rocket 4.3 13:41:15 10° S 13:47:40 76° E 13:53:57 10° N
Cosmos 1441 Rocket 4.0 13:46:40 19° NW 13:48:49 34° WSW 13:52:26 10° S
Cosmos 1802 Rocket 4.3 13:49:04 10° SSW 13:55:13 50° W 14:01:14 10° NNW
Okean 2 Rocket 4.5 13:53:06 15° WNW 13:55:32 23° WSW 13:59:09 10° SSW
Cosmos 372 Rocket 4.3 13:53:39 14° NW 13:57:52 51° WSW 14:02:53 10° S
Cosmos 2360 Rocket 2.3 13:58:10 10° SSW 14:03:43 56° WNW 14:09:15 10° N
Cosmos 1242 Rocket 2.4 14:00:39 10° SSW 14:03:53 54° W 14:07:05 10° N
Cosmos 2061 Rocket 4.0 13:58:52 10° SSW 14:05:05 66° W 14:11:13 10° N
H-2A R/B 3.3 14:03:06 10° NNE 14:06:32 54° ESE 14:10:00 10° S
ISS -1.1 14:06:04 10° SW 14:07:55 14° SSW 14:09:46 10° SSE
Cosmos 2219 Rocket 2.4 14:05:23 10° SSW 14:11:03 80° ESE 14:16:40 10° NNE
Cosmos 921 Rocket 2.9 14:08:40 10° SSW 14:12:55 80° WNW 14:17:05 10° N
UNK 3.8 14:08:17 10° S 14:12:59 83° WSW 14:17:35 10° NNW
Meteor 1-28 Rocket 3.9 14:11:21 10° S 14:14:46 36° WSW 14:18:07 10° NW
Cosmos 1725 Rocket 4.5 14:09:09 10° SSW 14:15:07 42° W 14:21:00 10° NNW
Okean 1 Rocket 4.5 14:14:22 10° NW 14:17:59 23° WSW 14:21:37 10° SSW
CZ-2C R/B 3.9 14:14:54 10° NW 14:18:42 20° W 14:22:30 10° SW
Cosmos 2322 Rocket 3.0 14:14:47 10° SW 14:19:33 29° WNW 14:24:18 10° NNW
SL-8 R/B 4.4 14:15:26 10° W 14:20:07 47° SSW 14:24:49 10° SE
ARIANE 5 R/B 2.7 14:17:23 10° NNE 14:22:38 87° ESE 14:27:54 10° SSW
USA 229 DEB 3.8 14:16:46 10° SW 14:22:48 43° WNW 14:28:26 10° N
USA 229 3.8 14:16:49 10° SW 14:22:52 44° WNW 14:28:32 10° N
Cosmos 2333 Rocket 2.5 14:19:23 10° SW 14:24:49 47° WNW 14:30:13 10° N
COSMOS 2428 3.7 14:19:29 10° SSW 14:25:07 53° ESE 14:30:39 10° NE
Cosmos 1892 Rocket 3.7 14:24:07 10° SSW 14:28:29 55° W 14:32:47 10° N
SL-16 R/B 2.8 14:25:42 10° S 14:31:44 54° WSW 14:37:43 10° NW
